Location: Stuttgart
(48.8069°N, 9.1544°E)
Time: 17:55:03
(UTC+01:00)

Amateur Radio Satellites - All Passes

Search period start: 24 November 2017 17:25
Search period end: 25 November 2017 17:25
Location: Stuttgart, 48.8069°N, 9.1544°E

Satellite Date Start Highest point End Downlink Frequencies (MHz)
Time Altitude Azimuth
NUDT-PHONESAT 24 Nov 17:39:08 17:42:45 71° 75° (ENE) 17:46:26 437.300
XW-2B 24 Nov 17:39:54 17:43:38 79° 259° (W) 17:47:24 145.730 - 145.750
CUBEBUG 2 24 Nov 17:51:52 17:55:31 25° 65° (ENE) 17:59:06 437.445
CUTE 1.7 + AOD 2 24 Nov 17:54:06 17:58:00 38° 69° (ENE) 18:01:55 437.475
RS-15 24 Nov 17:59:45 18:11:15 49° 112° (ESE) 18:22:39 29.354- 29.394
NO-84 24 Nov 18:03:07 18:06:48 34° 3° (N) 18:10:40 435.350 FM
XW-2C 24 Nov 18:06:04 18:09:34 38° 262° (W) 18:13:07 145.795 - 145.815
KKS-1 24 Nov 18:06:23 18:10:52 75° 287° (WNW) 18:15:17 437.445
YUBILEINY 24 Nov 18:06:55 18:14:37 35° 277° (W) 18:22:18 435.215
XW-2A 24 Nov 18:07:13 18:08:58 14° 63° (ENE) 18:10:44 145.665 - 145.685
CUTE-I 24 Nov 18:07:44 18:13:01 60° 258° (WSW) 18:18:22 437.470
HO-68 24 Nov 18:11:56 18:19:06 77° 69° (ENE) 18:26:20 435.675
LilacSat-2 24 Nov 18:12:49 18:16:11 31° 264° (W) 18:19:35 437.200
XW-2F 24 Nov 18:13:27 18:16:52 34° 263° (W) 18:20:19 145.980 - 146.000
AAUSAT CUBESAT 2 24 Nov 18:14:15 18:17:13 19° 62° (ENE) 18:20:13 437.432
SEEDS 24 Nov 18:17:25 18:21:21 41° 70° (ENE) 18:25:19 437.485
STARS 24 Nov 18:20:16 18:24:40 66° 103° (ESE) 18:29:00 437.465
ZACube-1 24 Nov 18:24:09 18:26:55 17° 61° (ENE) 18:29:39 437.345
KAITUO 1B 24 Nov 18:35:24 18:38:29 25° 266° (W) 18:41:37 145.475/437.950
CUBESAT XI-V 24 Nov 18:40:25 18:42:28 13° 305° (NW) 18:44:31 437.345
UWE-3 24 Nov 18:40:30 18:44:36 41° 70° (ENE) 18:48:38 435.000/436.395/437.385
XW-2D 24 Nov 19:02:40 19:03:19 10° 273° (W) 19:03:58 145.860 - 145.880
AO-73 24 Nov 19:11:25 19:15:23 40° 70° (ENE) 19:19:19 145.935
nSIGHT-1 24 Nov 19:13:55 19:15:08 12° 135° (SE) 19:16:20 .
NUDT-PHONESAT 24 Nov 19:16:42 19:17:05 10° 273° (W) 19:17:27 437.300
STRAND 1 24 Nov 19:22:53 19:27:35 35° 96° (E) 19:32:13 437.568
Oscar 11 24 Nov 19:23:38 19:27:36 38° 68° (ENE) 19:31:36 .
CUBEBUG 2 24 Nov 19:27:40 19:31:57 41° 262° (W) 19:36:08 437.445
CUTE 1.7 + AOD 2 24 Nov 19:30:32 19:33:57 24° 267° (W) 19:37:24 437.475
XW-2A 24 Nov 19:38:07 19:41:19 45° 261° (W) 19:44:33 145.665 - 145.685
NO-84 24 Nov 19:40:38 19:44:44 57° 23° (NNE) 19:48:57 435.350 FM
KKS-1 24 Nov 19:45:09 19:46:38 11° 306° (NW) 19:48:06 437.445
DELFI C3 24 Nov 19:46:12 19:48:35 15° 61° (ENE) 19:50:58 145.870
AAUSAT CUBESAT 2 24 Nov 19:48:19 19:52:20 49° 261° (W) 19:56:24 437.432
SEEDS 24 Nov 19:53:58 19:57:12 22° 268° (W) 20:00:29 437.485
STARS 24 Nov 19:57:41 20:00:32 17° 301° (WNW) 20:03:22 437.465
ZACube-1 24 Nov 19:58:34 20:02:48 60° 259° (W) 20:06:58 437.345
HO-68 24 Nov 20:01:52 20:07:33 25° 270° (W) 20:13:17 435.675
SO-50 24 Nov 20:03:52 20:04:36 10° 107° (ESE) 20:05:19 436.795
FO-29 24 Nov 20:05:02 20:12:00 33° 91° (E) 20:18:32 435.910
Max Valier Satellite 24 Nov 20:05:47 20:07:59 15° 62° (ENE) 20:10:10 145.860
ISS 24 Nov 20:08:04 20:10:51 26° 143° (SE) 20:13:39 437.550
RS-15 24 Nov 20:11:07 20:23:27 68° 317° (NW) 20:35:36 29.354- 29.394
UWE-3 24 Nov 20:17:43 20:21:13 23° 267° (W) 20:24:40 435.000/436.395/437.385
nSIGHT-1 24 Nov 20:47:38 20:50:48 58° 153° (SSE) 20:53:58 .
AO-73 24 Nov 20:48:26 20:51:46 22° 267° (W) 20:55:05 145.935
Oscar 11 24 Nov 21:00:19 21:03:51 25° 267° (W) 21:07:25 .
STRAND 1 24 Nov 21:02:06 21:06:46 36° 295° (WNW) 21:11:24 437.568
ESTCUBE 1 24 Nov 21:12:59 21:14:09 11° 54° (NE) 21:15:20 437.505/2401.250
NO-84 24 Nov 21:18:05 21:22:02 39° 222° (SW) 21:26:01 435.350 FM
DELFI C3 24 Nov 21:18:56 21:22:51 61° 258° (WSW) 21:26:51 145.870
EO-88 24 Nov 21:27:13 21:30:50 86° 77° (ENE) 21:34:29 145.990 - 145.960
Max Valier Satellite 24 Nov 21:37:53 21:41:26 49° 260° (W) 21:45:00 145.860
SO-50 24 Nov 21:39:45 21:44:12 73° 126° (SE) 21:48:44 436.795
LO-87 24 Nov 21:40:41 21:43:12 18° 64° (ENE) 21:45:43 145.935 - 145.965
ISS 24 Nov 21:43:49 21:47:06 78° 342° (NNW) 21:50:23 437.550
O/OREOS (USA 219) 24 Nov 21:44:59 21:49:14 36° 55° (NE) 21:53:25 437.305
FO-29 24 Nov 21:49:41 21:57:28 64° 292° (WNW) 22:04:46 435.910
PRISM 24 Nov 21:50:32 21:52:38 13° 89° (E) 21:54:41 437.425
UNISAT 6 24 Nov 21:59:31 22:03:38 46° 99° (E) 22:07:44 437.425
TIGRISAT 24 Nov 22:02:48 22:06:55 45° 99° (E) 22:10:59 435.000
nSIGHT-1 24 Nov 22:23:56 22:27:06 52° 352° (N) 22:30:15 .
RS-15 24 Nov 22:27:17 22:38:34 39° 348° (NNW) 22:49:32 29.354- 29.394
ESTCUBE 1 24 Nov 22:45:41 22:50:08 71° 74° (ENE) 22:54:38 437.505/2401.250
VELOX 1 24 Nov 22:51:00 22:53:54 17° 59° (ENE) 22:56:49 145.980
PCSat 24 Nov 23:12:01 23:16:34 28° 111° (ESE) 23:21:09 145.827
LO-87 24 Nov 23:12:57 23:16:21 39° 262° (W) 23:19:46 145.935 - 145.965
QB50P2 24 Nov 23:17:06 23:19:38 15° 90° (E) 23:22:09 145.880/145.840
SPROUT 24 Nov 23:17:18 23:21:18 39° 68° (ENE) 23:25:18 437.525
ISS 24 Nov 23:20:36 23:23:49 49° 2° (N) 23:27:00 437.550
SO-50 24 Nov 23:21:25 23:25:07 25° 327° (NNW) 23:28:53 436.795
PRISM 24 Nov 23:24:12 23:28:21 69° 288° (WNW) 23:32:28 437.425
O/OREOS (USA 219) 24 Nov 23:24:34 23:28:33 30° 255° (WSW) 23:32:30 437.305
DX 1 24 Nov 23:26:36 23:27:25 10° 54° (NE) 23:28:14 434.975-435.025
AIST 2D 24 Nov 23:27:47 23:31:13 47° 99° (E) 23:34:39 435.315
FO-29 24 Nov 23:36:00 23:41:01 19° 313° (NW) 23:45:56 435.910
UNISAT 6 24 Nov 23:36:50 23:40:05 21° 297° (WNW) 23:43:18 437.425
TIGRISAT 24 Nov 23:40:06 23:43:20 21° 297° (WNW) 23:46:34 435.000
50 SAT 24 Nov 23:54:07 23:55:37 13° 62° (ENE) 23:57:08 437.505
UKube-1 24 Nov 23:58:54 00:01:03 14° 57° (ENE) 00:03:14 .
DUCHIFAT 1 24 Nov 23:59:34 00:03:12 28° 95° (E) 00:06:48 145.980
nSIGHT-1 25 Nov 00:00:24 00:03:36 59° 12° (NNE) 00:06:46 .
EO-79 25 Nov 00:11:33 00:15:38 48° 99° (E) 00:19:41 145.935-145.965
NANOSAT C BR1 25 Nov 00:12:10 00:16:11 43° 99° (E) 00:20:10 145.865
ESTCUBE 1 25 Nov 00:24:58 00:27:27 15° 272° (W) 00:29:57 437.505/2401.250
VELOX 1 25 Nov 00:25:27 00:29:52 67° 258° (WSW) 00:34:20 145.980
POLYITAN 1 25 Nov 00:27:55 00:32:08 71° 103° (ESE) 00:36:18 437.675
BUGSAT 1 25 Nov 00:37:11 00:40:01 18° 92° (E) 00:42:49 437.445
Oscar 19 25 Nov 00:40:21 00:43:01 14° 87° (E) 00:45:42 437.125/150
RS-15 25 Nov 00:43:20 00:54:48 44° 22° (NNE) 01:05:42 29.354- 29.394
QB50P2 25 Nov 00:51:40 00:55:49 60° 288° (WNW) 00:59:56 145.880/145.840
SPROUT 25 Nov 00:53:50 00:57:18 24° 267° (W) 01:00:47 437.525
PCSat 25 Nov 00:54:21 00:59:41 56° 311° (NW) 01:05:02 145.827
ISS 25 Nov 00:57:10 01:00:28 87° 201° (SSW) 01:03:44 437.550
DX 1 25 Nov 00:58:25 01:02:46 70° 73° (ENE) 01:07:10 434.975-435.025
ITUPSAT 1 25 Nov 01:00:39 01:01:46 11° 52° (NE) 01:02:54 437.325
AIST 2D 25 Nov 01:01:58 01:04:02 15° 297° (WNW) 01:06:07 435.315
SO-50 25 Nov 01:05:31 01:07:11 12° 352° (N) 01:08:51 436.795
50 SAT 25 Nov 01:24:10 01:27:18 48° 259° (W) 01:30:29 437.505
UKube-1 25 Nov 01:32:07 01:36:27 85° 255° (WSW) 01:40:49 .
DUCHIFAT 1 25 Nov 01:35:10 01:38:52 31° 293° (WNW) 01:42:33 145.980
Gurwin Techsat 1B 25 Nov 01:35:32 01:40:16 31° 95° (E) 01:44:57 435.225
nSIGHT-1 25 Nov 01:36:43 01:39:46 41° 212° (SSW) 01:42:48 .
BEESAT 3 25 Nov 01:40:24 01:43:44 26° 117° (ESE) 01:47:05 437.485
EO-79 25 Nov 01:48:00 01:51:05 20° 298° (WNW) 01:54:10 145.935-145.965
NANOSAT C BR1 25 Nov 01:48:25 01:51:39 22° 297° (WNW) 01:54:51 145.865
AO-91 25 Nov 01:58:19 02:02:53 65° 101° (E) 02:06:55 145.960
POLYITAN 1 25 Nov 02:05:02 02:07:23 15° 301° (WNW) 02:09:45 437.675
MOZHAYETS 4 25 Nov 02:08:58 02:13:19 46° 69° (ENE) 02:17:41
BUGSAT 1 25 Nov 02:11:45 02:15:37 46° 290° (WNW) 02:19:27 437.445
AO-7 25 Nov 02:15:07 02:19:45 16° 85° (E) 02:24:21 .
Oscar 19 25 Nov 02:17:51 02:23:03 89° 286° (WNW) 02:28:15 437.125/150
BEESAT 25 Nov 02:21:38 02:26:14 50° 69° (ENE) 02:30:51 436.000
CUBESAT XI-V 25 Nov 02:32:05 02:35:36 22° 62° (ENE) 02:39:09 437.345
ITUPSAT 1 25 Nov 02:33:57 02:38:40 63° 71° (ENE) 02:43:25 437.325
ISS 25 Nov 02:34:09 02:36:35 19° 220° (SW) 02:39:01 437.550
DX 1 25 Nov 02:37:01 02:39:27 14° 271° (W) 02:41:52 434.975-435.025
PCSat 25 Nov 02:40:38 02:44:15 18° 334° (NNW) 02:47:54 145.827
ITAMSAT 1 25 Nov 02:42:27 02:43:57 11° 85° (E) 02:45:28 435.822/435.867
SO-50 25 Nov 02:47:13 02:49:36 14° 17° (NNE) 02:52:01 436.795
M-CUBED/EXP-1 PRIME 25 Nov 02:54:46 02:58:52 31° 101° (E) 03:03:00 437.505
RS-15 25 Nov 02:56:52 03:08:57 88° 52° (NE) 03:20:19 29.354- 29.394
AO-85 25 Nov 02:57:44 03:00:23 18° 112° (ESE) 03:03:06 145.980
BEESAT 2 25 Nov 03:00:53 03:04:45 48° 122° (ESE) 03:08:41 435.950
Gurwin Techsat 1B 25 Nov 03:15:19 03:20:20 43° 294° (WNW) 03:25:20 435.225
BEESAT 3 25 Nov 03:17:16 03:21:06 43° 316° (NW) 03:24:57 437.485
YUBILEINY 25 Nov 03:24:51 03:28:40 14° 69° (ENE) 03:32:29 435.215
KKS-1 25 Nov 03:32:40 03:36:06 22° 61° (ENE) 03:39:33 437.445
AO-91 25 Nov 03:35:47 03:38:44 17° 302° (WNW) 03:41:30 145.960
STARS 25 Nov 03:46:38 03:48:54 14° 57° (ENE) 03:51:10 437.465
MOZHAYETS 4 25 Nov 03:47:05 03:50:41 23° 267° (W) 03:54:18
Oscar 19 25 Nov 03:58:34 04:01:40 16° 305° (NW) 04:04:47 437.125/150
BEESAT 25 Nov 04:00:31 04:04:17 23° 267° (W) 04:08:02 436.000
AO-7 25 Nov 04:05:43 04:14:05 69° 106° (ESE) 04:22:25 .
CUBESAT XI-V 25 Nov 04:08:09 04:12:39 52° 260° (W) 04:17:12 437.345
ITUPSAT 1 25 Nov 04:13:39 04:16:56 18° 270° (W) 04:20:12 437.325
ITAMSAT 1 25 Nov 04:19:05 04:24:20 75° 104° (ESE) 04:29:31 435.822/435.867
SO-50 25 Nov 04:27:03 04:31:21 36° 40° (NE) 04:35:41 436.795
PCSat 25 Nov 04:28:32 04:30:01 11° 0° (N) 04:31:30 145.827
M-CUBED/EXP-1 PRIME 25 Nov 04:29:02 04:33:14 38° 298° (WNW) 04:37:32 437.505
AO-85 25 Nov 04:36:25 04:40:18 59° 312° (NW) 04:44:26 145.980
BEESAT 2 25 Nov 04:39:11 04:42:40 27° 322° (NW) 04:46:13 435.950
DOVE 4 25 Nov 04:55:45 05:00:33 38° 95° (E) 05:05:06 437.250
BEESAT 3 25 Nov 04:57:50 04:59:37 13° 337° (NNW) 05:01:25 437.485
STRAND 1 25 Nov 05:06:43 05:09:12 14° 53° (NE) 05:11:41 437.568
KKS-1 25 Nov 05:07:59 05:12:20 50° 260° (W) 05:16:44 437.445
RS-15 25 Nov 05:10:22 05:19:55 31° 257° (WSW) 05:29:07 29.354- 29.394
YUBILEINY 25 Nov 05:14:57 05:23:30 62° 92° (E) 05:32:10 435.215
STARS 25 Nov 05:20:09 05:24:36 87° 255° (WSW) 05:29:04 437.465
XW-2C 25 Nov 05:35:02 05:37:31 16° 91° (E) 05:40:00 145.795 - 145.815
HO-68 25 Nov 05:39:20 05:40:37 10° 81° (E) 05:41:54 435.675
XW-2F 25 Nov 05:41:39 05:44:19 18° 92° (E) 05:46:58 145.980 - 146.000
LilacSat-2 25 Nov 05:41:55 05:44:53 21° 93° (E) 05:47:50 437.200
AO-7 25 Nov 05:59:02 06:06:22 36° 307° (NW) 06:13:43 .
ITAMSAT 1 25 Nov 05:59:34 06:03:14 20° 303° (WNW) 06:06:53 435.822/435.867
KAITUO 1B 25 Nov 06:01:56 06:05:00 23° 94° (E) 06:08:03 145.475/437.950
SO-50 25 Nov 06:07:31 06:11:53 42° 240° (WSW) 06:16:18 436.795
PCSat 25 Nov 06:12:08 06:15:46 18° 26° (NNE) 06:19:24 145.827
AO-85 25 Nov 06:19:08 06:21:37 15° 336° (NNW) 06:24:12 145.980
CUTE-I 25 Nov 06:20:41 06:25:46 41° 98° (E) 06:30:47 437.470
BEESAT 2 25 Nov 06:21:19 06:21:43 10° 345° (NNW) 06:22:08 435.950
FO-29 25 Nov 06:21:37 06:27:15 25° 53° (NE) 06:33:13 435.910
XW-2D 25 Nov 06:27:16 06:31:04 62° 101° (E) 06:34:52 145.860 - 145.880
DOVE 4 25 Nov 06:33:31 06:38:09 34° 295° (WNW) 06:42:34 437.250
NUDT-PHONESAT 25 Nov 06:38:44 06:42:25 56° 100° (E) 06:46:05 437.300
XW-2B 25 Nov 06:42:15 06:46:05 88° 101° (E) 06:49:55 145.730 - 145.750
STRAND 1 25 Nov 06:42:23 06:47:31 74° 73° (ENE) 06:52:40 437.568
STARS 25 Nov 07:00:39 07:01:37 11° 273° (W) 07:02:34 437.465
XW-2C 25 Nov 07:08:16 07:11:57 46° 289° (WNW) 07:15:37 145.795 - 145.815
CUTE 1.7 + AOD 2 25 Nov 07:10:12 07:14:20 44° 98° (E) 07:18:26 437.475
YUBILEINY 25 Nov 07:12:53 07:20:51 37° 295° (WNW) 07:28:54 435.215
CUBEBUG 2 25 Nov 07:14:22 07:18:01 29° 95° (E) 07:21:37 437.445
XW-2F 25 Nov 07:15:01 07:18:37 42° 289° (WNW) 07:22:13 145.980 - 146.000
LilacSat-2 25 Nov 07:15:43 07:19:16 36° 290° (WNW) 07:22:49 437.200
HO-68 25 Nov 07:22:53 07:29:58 57° 101° (ESE) 07:36:59 435.675
AAUSAT CUBESAT 2 25 Nov 07:26:46 07:29:51 20° 91° (E) 07:32:56 437.432
SEEDS 25 Nov 07:32:20 07:36:28 47° 99° (E) 07:40:34 437.485
KAITUO 1B 25 Nov 07:35:38 07:39:01 32° 291° (WNW) 07:42:24 145.475/437.950
ZACube-1 25 Nov 07:43:18 07:46:16 19° 91° (E) 07:49:15 437.345
AO-7 25 Nov 07:53:47 07:56:44 12° 332° (NNW) 07:59:43 .
PCSat 25 Nov 07:55:00 08:00:22 57° 50° (NE) 08:05:41 145.827
CUTE-I 25 Nov 08:00:55 08:05:43 34° 297° (WNW) 08:10:29 437.470
UWE-3 25 Nov 08:01:57 08:06:00 51° 99° (E) 08:10:04 435.000/436.395/437.385
XW-2D 25 Nov 08:02:44 08:04:47 14° 299° (WNW) 08:06:50 145.860 - 145.880
FO-29 25 Nov 08:04:18 08:11:18 89° 248° (WSW) 08:19:04 435.910
NUDT-PHONESAT 25 Nov 08:13:45 08:15:51 15° 298° (WNW) 08:17:57 437.300
BEESAT 3 25 Nov 08:16:01 08:18:14 14° 26° (NNE) 08:20:26 437.485
XW-2B 25 Nov 08:18:46 08:19:38 11° 302° (WNW) 08:20:31 145.730 - 145.750
STRAND 1 25 Nov 08:23:55 08:27:16 17° 271° (W) 08:30:38 437.568
XW-2A 25 Nov 08:27:56 08:31:18 81° 285° (WNW) 08:34:41 145.665 - 145.685
AO-73 25 Nov 08:30:53 08:34:56 49° 99° (E) 08:39:00 145.935
Oscar 11 25 Nov 08:42:24 08:46:35 45° 98° (E) 08:50:45 .
PRISM 25 Nov 08:43:07 08:45:53 18° 60° (ENE) 08:48:41 437.425
CUTE 1.7 + AOD 2 25 Nov 08:46:35 08:49:54 22° 297° (WNW) 08:53:14 437.475
CUBEBUG 2 25 Nov 08:50:59 08:54:38 30° 293° (WNW) 08:58:16 437.445
DELFI C3 25 Nov 08:53:06 08:55:03 13° 88° (E) 08:57:00 145.870
AAUSAT CUBESAT 2 25 Nov 09:01:30 09:05:33 46° 289° (WNW) 09:09:32 437.432
UNISAT 6 25 Nov 09:01:33 09:06:02 66° 73° (ENE) 09:10:25 437.425
TIGRISAT 25 Nov 09:04:42 09:09:10 65° 72° (ENE) 09:13:32 435.000
Max Valier Satellite 25 Nov 09:05:22 09:06:36 11° 89° (E) 09:07:49 145.860
SEEDS 25 Nov 09:08:39 09:11:51 21° 297° (WNW) 09:15:03 437.485
HO-68 25 Nov 09:11:01 09:17:26 37° 302° (WNW) 09:23:50 435.675
ZACube-1 25 Nov 09:18:49 09:22:48 47° 289° (WNW) 09:26:49 437.345
BEESAT 2 25 Nov 09:37:30 09:40:36 20° 33° (NNE) 09:43:40 435.950
PCSat 25 Nov 09:38:54 09:43:27 28° 250° (WSW) 09:48:00 145.827
UWE-3 25 Nov 09:39:16 09:42:08 18° 298° (WNW) 09:45:01 435.000/436.395/437.385
AO-85 25 Nov 09:43:10 09:46:08 17° 26° (NNE) 09:49:13 145.980
POLYITAN 1 25 Nov 09:51:17 09:52:51 12° 57° (ENE) 09:54:25 437.675
FO-29 25 Nov 09:52:23 09:57:27 21° 277° (W) 10:02:52 435.910
BEESAT 3 25 Nov 09:52:41 09:56:36 56° 47° (NE) 10:00:28 437.485
AIST 2D 25 Nov 10:05:32 10:08:37 31° 69° (ENE) 10:11:43 435.315
AO-73 25 Nov 10:07:54 10:10:51 19° 298° (WNW) 10:13:49 145.935
QB50P2 25 Nov 10:13:08 10:16:15 20° 62° (ENE) 10:19:23 145.880/145.840
PRISM 25 Nov 10:16:41 10:20:45 57° 259° (WSW) 10:24:53 437.425
FALCONSAT 3 25 Nov 10:17:13 10:17:52 10° 180° (S) 10:18:32 435.103
Oscar 11 25 Nov 10:19:06 10:22:27 22° 297° (WNW) 10:25:49 .
EO-88 25 Nov 10:25:11 10:28:50 64° 102° (ESE) 10:32:27 145.990 - 145.960
DELFI C3 25 Nov 10:26:14 10:30:13 64° 287° (WNW) 10:34:10 145.870
ESTCUBE 1 25 Nov 10:36:11 10:37:43 11° 86° (E) 10:39:15 437.505/2401.250
LO-87 25 Nov 10:37:04 10:38:30 12° 89° (E) 10:39:56 145.935 - 145.965
Max Valier Satellite 25 Nov 10:37:11 10:40:49 64° 287° (WNW) 10:44:28 145.860
UNISAT 6 25 Nov 10:40:27 10:43:10 16° 270° (W) 10:45:50 437.425
TIGRISAT 25 Nov 10:43:31 10:46:15 16° 270° (W) 10:48:58 435.000
DUCHIFAT 1 25 Nov 10:54:39 10:58:29 35° 68° (ENE) 11:02:19 145.980
HO-68 25 Nov 11:02:26 11:03:10 10° 325° (NW) 11:03:55 435.675
EO-79 25 Nov 11:07:13 11:11:22 59° 73° (ENE) 11:15:32 145.935-145.965
NANOSAT C BR1 25 Nov 11:07:29 11:11:35 53° 71° (ENE) 11:15:42 145.865
BEESAT 2 25 Nov 11:14:44 11:18:48 78° 234° (SW) 11:22:47 435.950
AO-85 25 Nov 11:22:52 11:27:24 59° 47° (NE) 11:32:17 145.980
POLYITAN 1 25 Nov 11:23:43 11:27:57 87° 73° (ENE) 11:32:12 437.675
AO-91 25 Nov 11:23:43 11:26:58 16° 57° (ENE) 11:30:09 145.960
Gurwin Techsat 1B 25 Nov 11:24:00 11:26:35 14° 52° (NE) 11:29:10 435.225
BUGSAT 1 25 Nov 11:30:14 11:33:31 23° 64° (ENE) 11:36:48 437.445
BEESAT 3 25 Nov 11:31:00 11:33:46 18° 246° (WSW) 11:36:30 437.485
AO-7 25 Nov 11:31:39 11:34:36 12° 28° (NNE) 11:37:33 .
AIST 2D 25 Nov 11:39:14 11:41:51 20° 267° (W) 11:44:29 435.315
QB50P2 25 Nov 11:47:37 11:51:44 49° 260° (W) 11:55:52 145.880/145.840
Oscar 19 25 Nov 12:00:17 12:04:45 31° 63° (ENE) 12:09:15 437.125/150
EO-88 25 Nov 12:00:18 12:01:59 13° 299° (WNW) 12:03:41 145.990 - 145.960
O/OREOS (USA 219) 25 Nov 12:02:20 12:05:34 19° 101° (E) 12:08:47 437.305
LO-87 25 Nov 12:08:46 12:12:15 55° 287° (WNW) 12:15:42 145.935 - 145.965
ESTCUBE 1 25 Nov 12:10:37 12:15:11 90° 5° (N) 12:19:44 437.505/2401.250
VELOX 1 25 Nov 12:12:14 12:15:15 18° 91° (E) 12:18:16 145.980
DUCHIFAT 1 25 Nov 12:30:40 12:34:13 26° 266° (W) 12:37:45 145.980
SPROUT 25 Nov 12:34:19 12:38:22 42° 98° (E) 12:42:24 437.525
NANOSAT C BR1 25 Nov 12:44:47 12:47:36 17° 269° (W) 12:50:26 145.865
EO-79 25 Nov 12:44:54 12:47:30 16° 270° (W) 12:50:06 145.935-145.965
AO-91 25 Nov 12:57:15 13:02:41 84° 75° (ENE) 13:07:59 145.960
Gurwin Techsat 1B 25 Nov 13:00:20 13:05:37 71° 72° (ENE) 13:10:57 435.225
POLYITAN 1 25 Nov 13:03:19 13:04:20 11° 273° (W) 13:05:20 437.675
AO-85 25 Nov 13:03:44 13:07:35 25° 244° (WSW) 13:11:37 145.980
BUGSAT 1 25 Nov 13:04:44 13:08:41 40° 262° (W) 13:12:35 437.445
UKube-1 25 Nov 13:17:00 13:18:40 12° 88° (E) 13:20:19 .
AO-7 25 Nov 13:17:42 13:24:58 36° 53° (NE) 13:32:17 .
Oscar 19 25 Nov 13:39:07 13:43:57 42° 262° (W) 13:48:49 437.125/150
O/OREOS (USA 219) 25 Nov 13:40:00 13:44:32 59° 300° (WNW) 13:49:07 437.305
M-CUBED/EXP-1 PRIME 25 Nov 13:43:48 13:47:31 64° 67° (ENE) 13:51:34 437.505
VELOX 1 25 Nov 13:47:40 13:52:04 58° 289° (WNW) 13:56:25 145.980
ESTCUBE 1 25 Nov 13:49:03 13:51:19 14° 303° (WNW) 13:53:35 437.505/2401.250
ITAMSAT 1 25 Nov 14:02:40 14:07:05 28° 61° (ENE) 14:11:30 435.822/435.867
50 SAT 25 Nov 14:09:07 14:12:21 74° 103° (ESE) 14:15:32 437.505
SPROUT 25 Nov 14:10:41 14:14:02 23° 297° (WNW) 14:17:21 437.525
NO-84 25 Nov 14:12:13 14:15:35 37° 137° (SE) 14:19:12 435.350 FM
DX 1 25 Nov 14:18:33 14:22:58 75° 104° (ESE) 14:27:19 434.975-435.025
DOVE 4 25 Nov 14:31:00 14:32:25 11° 51° (NE) 14:33:50 437.250
ITUPSAT 1 25 Nov 14:32:32 14:34:11 12° 86° (E) 14:35:49 437.325
AO-91 25 Nov 14:36:17 14:39:40 17° 273° (W) 14:43:02 145.960
Gurwin Techsat 1B 25 Nov 14:42:25 14:46:07 19° 271° (W) 14:49:49 435.225
UKube-1 25 Nov 14:50:55 14:55:16 82° 286° (WNW) 14:59:35 .
AO-7 25 Nov 15:09:01 15:17:16 68° 254° (WSW) 15:25:35 .
YUBILEINY 25 Nov 15:20:06 15:28:16 38° 66° (ENE) 15:36:21 435.215
M-CUBED/EXP-1 PRIME 25 Nov 15:20:33 15:22:26 13° 267° (W) 15:24:24 437.505
O/OREOS (USA 219) 25 Nov 15:23:10 15:24:59 12° 322° (NW) 15:26:48 437.305
MOZHAYETS 4 25 Nov 15:36:35 15:41:08 62° 102° (ESE) 15:45:40
ITAMSAT 1 25 Nov 15:41:15 15:46:18 49° 260° (W) 15:51:24 435.822/435.867
NO-84 25 Nov 15:49:06 15:52:49 54° 338° (NNW) 15:56:49 435.350 FM
BEESAT 25 Nov 15:55:03 15:59:48 68° 102° (ESE) 16:04:32 436.000
DX 1 25 Nov 15:56:00 15:58:35 16° 302° (WNW) 16:01:10 434.975-435.025
CUBESAT XI-V 25 Nov 16:00:36 16:04:43 29° 94° (E) 16:08:49 437.345
DOVE 4 25 Nov 16:03:55 16:08:58 56° 71° (ENE) 16:14:10 437.250
ITUPSAT 1 25 Nov 16:07:56 16:12:44 86° 106° (ESE) 16:17:30 437.325
CUTE-I 25 Nov 16:08:49 16:12:20 18° 55° (NE) 16:15:52 437.470
HO-68 25 Nov 16:11:35 16:15:51 17° 44° (NE) 16:20:06 435.675
XW-2C 25 Nov 16:20:28 16:22:39 15° 61° (ENE) 16:24:50 145.795 - 145.815
XW-2F 25 Nov 16:26:32 16:28:52 16° 62° (ENE) 16:31:12 145.980 - 146.000
LilacSat-2 25 Nov 16:27:46 16:30:27 19° 64° (ENE) 16:33:09 437.200
UKube-1 25 Nov 16:28:58 16:30:34 12° 305° (NW) 16:32:09 .
KAITUO 1B 25 Nov 16:45:43 16:48:26 20° 64° (ENE) 16:51:11 145.475/437.950
KKS-1 25 Nov 16:55:13 16:58:46 23° 93° (E) 17:02:18 437.445
AO-7 25 Nov 17:07:10 17:11:38 15° 275° (W) 17:16:08 .
STARS 25 Nov 17:07:11 17:09:09 13° 88° (E) 17:11:07 437.465
XW-2D 25 Nov 17:11:49 17:15:27 51° 72° (ENE) 17:19:07 145.860 - 145.880
MOZHAYETS 4 25 Nov 17:14:41 17:17:51 19° 300° (WNW) 17:21:02
